JS2QVS-13 Weather Reports


Display with metric or nautical units.
time (UTC)temp
F
wind
direction
speed
MPH
gust
MPH
rain 1hr
in
rain 24hr
in
rain mn
in
humidity
%
barometer
mb
20260504150743 59 265 3.0 7.0 0.00 0.41 0.00 58 1008.5
20260504140742 60 277 5.0 8.0 0.00 1.23 0.43 55 1008.1
20260504130741 61 267 5.0 7.0 0.00 1.74 0.43 55 1007.6
20260504081742 68 265 6.0 7.0 0.00 2.62 0.43 50 1001.2
20260504080742 69 264 7.0 13.0 0.00 2.63 0.43 49 1000.9
20260504050743 73 271 7.0 12.0 0.00 2.70 0.43 46 998.3
20260504045742 75 271 5.0 9.0 0.00 2.70 0.43 45 998.3
20260504044742 75 270 6.0 8.0 0.00 2.70 0.43 46 998.3
20260504043742 75 264 7.0 12.0 0.00 2.70 0.43 45 998.3
20260504042742 75 273 6.0 9.0 0.00 2.70 0.43 46 998.4
20260504041742 75 275 6.0 9.0 0.00 2.70 0.43 44 998.2
20260504040742 75 279 6.0 12.0 0.00 2.70 0.43 42 998.3
20260504035742 75 274 8.0 12.0 0.00 2.70 0.43 42 998.4
20260504034742 75 272 3.0 9.0 0.00 2.70 0.43 47 998.2
20260504033742 74 272 7.0 7.0 0.00 2.70 0.43 52 998.2
20260504032741 74 276 7.0 12.0 0.00 2.70 0.43 52 998.2
20260504031741 75 273 6.0 9.0 0.00 2.70 0.43 51 998.1
20260504030741 75 269 6.0 8.0 0.00 2.70 0.43 51 998.2
20260504025741 75 269 7.0 12.0 0.00 2.70 0.43 53 998.3
20260504024741 75 271 5.0 8.0 0.00 2.70 0.43 54 998.3
20260504023743 74 270 5.0 10.0 0.00 2.70 0.43 56 998.5
20260504022743 73 269 5.0 7.0 0.00 2.70 0.43 59 998.5
20260504021742 73 276 5.0 15.0 0.00 2.70 0.43 61 998.4
20260504020742 72 271 5.0 9.0 0.00 2.70 0.43 64 998.6
20260504015742 71 272 6.0 9.0 0.00 2.70 0.43 66 998.7
20260504014742 71 268 5.0 8.0 0.00 2.70 0.43 66 998.6
20260504013742 70 265 7.0 8.0 0.00 2.70 0.43 68 998.7
20260504012742 70 272 6.0 12.0 0.00 2.70 0.43 68 999.0
20260504011742 69 274 7.0 16.0 0.00 2.70 0.43 70 999.0
20260504010741 69 269 5.0 6.0 0.00 2.70 0.43 74 998.9
20260504005741 68 270 5.0 9.0 0.00 2.70 0.43 75 998.9
20260504004741 68 267 3.0 7.0 0.00 2.70 0.43 77 998.9
20260504003741 68 267 6.0 12.0 0.00 2.70 0.43 78 999.0
20260504002741 68 270 6.0 7.0 0.00 2.70 0.43 80 998.8
20260504001741 68 270 2.0 7.0 0.00 2.70 0.43 83 998.7
20260504000743 68 272 2.0 3.0 0.00 2.70 0.43 84 998.8
20260503235743 67 263 1.0 2.0 0.00 2.70 0.43 85 998.8
20260503234742 67 279 1.0 5.0 0.00 2.70 0.43 85 998.7
20260503233742 66 259 2.0 3.0 0.00 2.70 0.43 86 998.9
20260503232742 66 253 2.0 2.0 0.00 2.70 0.43 86 998.9
20260503231742 66 281 2.0 6.0 0.00 2.70 0.43 86 998.8
20260503230742 66 270 3.0 7.0 0.00 2.70 0.43 86 998.8
20260503225742 66 273 2.0 6.0 0.00 2.70 0.43 87 998.9
20260503224742 66 274 3.0 6.0 0.00 2.70 0.43 88 998.5
20260503223742 66 266 2.0 10.0 0.00 2.70 0.43 87 998.1
20260503222742 66 258 1.0 5.0 0.00 2.70 0.43 88 998.1
20260503221741 66 260 0.0 3.0 0.00 2.70 0.43 88 998.0
20260503220741 66 255 2.0 7.0 0.00 2.70 0.43 88 997.8
20260503215741 66 254 2.0 6.0 0.00 2.70 0.43 88 997.4
20260503213741 66 261 1.0 2.0 0.00 2.70 0.43 88 997.6
20260503212741 66 277 5.0 9.0 0.00 2.70 0.43 87 997.2
20260503211741 67 260 3.0 8.0 0.00 2.70 0.43 87 997.2
20260503210743 68 274 5.0 7.0 0.00 2.70 0.43 87 997.0
20260503205743 68 270 6.0 9.0 0.00 2.70 0.43 88 997.2
20260503203742 68 266 5.0 10.0 0.01 2.70 0.43 91 996.9
20260503202742 69 279 2.0 3.0 0.05 2.70 0.43 92 996.7
20260503201742 68 270 2.0 5.0 0.10 2.70 0.43 92 996.9
20260503200742 68 273 5.0 6.0 0.12 2.70 0.43 93 996.9
20260503195742 69 277 5.0 6.0 0.15 2.70 0.43 93 996.6
20260503194742 69 267 6.0 10.0 0.20 2.69 0.42 93 996.4
20260503193741 69 265 7.0 10.0 0.27 2.69 0.42 93 996.3
20260503192741 69 270 10.0 16.0 0.26 2.65 0.38 92 996.2
20260503191741 69 269 7.0 14.0 0.21 2.60 0.33 92 996.3
20260503185741 69 257 10.0 20.0 0.16 2.55 0.28 92 995.7
20260503184741 69 259 12.0 17.0 0.10 2.49 0.22 92 995.4
20260503183743 69 250 12.0 18.0 0.03 2.42 0.15 90 995.5
20260503182743 69 252 13.0 25.0 0.00 2.39 0.12 89 995.5
20260503181743 69 251 10.0 22.0 0.00 2.39 0.12 89 995.7
20260503180742 69 252 13.0 21.0 0.00 2.39 0.12 89 996.0
20260503175742 70 253 12.0 22.0 0.00 2.39 0.12 89 996.3
20260503174742 69 261 10.0 18.0 0.01 2.39 0.12 89 996.5
20260503173742 69 252 10.0 18.0 0.01 2.39 0.12 89 996.6
20260503172742 69 248 10.0 15.0 0.01 2.39 0.12 89 996.7
20260503171742 69 246 9.0 13.0 0.01 2.39 0.12 90 997.0
20260503170742 69 254 9.0 17.0 0.01 2.39 0.12 90 997.2